Location: downtown San Diego
(32.7310°N, 117.1990°W)
Time: 23:51:13
(UTC-07:00)

Cosmos 1378 Rocket - Pass Details

Date: 19 May 2017
Orbit: 602 x 628 km, 82.5° (Epoch: 24 July)

Event Time Altitude Azimuth Distance (km) Brightness Sun altitude
Rises 20:13:05 0° 186° (S) 2,894 6.8 -6.3°
Reaches altitude 10° 20:15:18 10° 186° (S) 1,993 5.9 -6.7°
Maximum altitude 20:19:43 87° 274° (W) 633 3.7 -7.6°
Drops below altitude 10° 20:24:11 10° 5° (N) 2,007 6.5 -8.4°
Sets 20:26:26 0° 6° (N) 2,916 7.4 -8.8°
